Weather History for KBQP - April, 2013

Change the Weather History Date:

Thursday, April 11, 2013

  Actual Average (KMLU) Record (KMLU)
Temperature  
Mean Temperature 49 °F 64 °F  
Max Temperature 55 °F 77 °F 89 °F (1994)
Min Temperature 43 °F 52 °F 33 °F (1989)
Degree Days  
Heating Degree Days 16 3  
Month to date heating degree days 47  
Since 1 July heating degree days 2191  
Cooling Degree Days 0 3  
Month to date cooling degree days 26  
Year to date cooling degree days 69  
Moisture  
Dew Point 46 °F    
Average Humidity 87    
Maximum Humidity 93    
Minimum Humidity 65    
Precipitation  
Precipitation 1.95 in 0.15 in 4.48 in (1974)
Month to date precipitation 1.61  
Year to date precipitation 15.97  
Snow  
Snow 0.00 in - - ()
Month to date snowfall  
Since 1 July snowfall  
Snow Depth -    
Sea Level Pressure  
Sea Level Pressure 29.81 in    
Wind  
Wind Speed 5 mph (WNW)    
Max Wind Speed 13 mph    
Max Gust Speed 22 mph    
Visibility 7 miles    
Events Rain , Thunderstorm    
T = Trace of Precipitation, MM = Missing Value Source: NWS Daily Summary

Daily Weather History Graph

Daily Weather History Graph

Search for Another Location

Airport or City:

Trip Planner

Search our weather history database for the weather conditions in past years. The results will help you decide how hot, cold, wet, or windy it might be!

Date:

Astronomy

Apr. 11, 2013 Rise Set
Actual Time 6:42 AM CDT 7:34 PM CDT
Civil Twilight 6:17 AM CDT 8:00 PM CDT
Nautical Twilight 5:47 AM CDT 8:29 PM CDT
Astronomical Twilight 5:17 AM CDT 9:00 PM CDT
Moon 7:18 AM CDT (4/11) 9:03 PM CDT (4/11)
Length of Visible Light 13h 42m
Length of Day
12h 52m
New Moon, 2% of the Moon is Illuminated
Apr 11
New Moon
Apr 18
First Quarter
Apr 25
Full
May 2
Last Quarter
May 9
New

Hourly Weather History & Observations

Time (CDT) Temp. Dew Point Humidity Pressure Visibility Wind Dir Wind Speed Gust Speed Precip Events Conditions
12:15 AM 55.4 °F 52.7 °F 91% 29.80 in 7.0 mi WNW 12.7 mph 20.7 mph 0.02 in Rain , Thunderstorm Light Thunderstorms and Rain
12:35 AM 54.5 °F 51.8 °F 91% 29.81 in 10.0 mi West 8.1 mph 20.7 mph 0.03 in Rain , Thunderstorm Light Thunderstorms and Rain
12:55 AM 54.1 °F 51.8 °F 92% 29.80 in 7.0 mi Calm Calm - 0.05 in Rain , Thunderstorm Thunderstorms and Rain
1:15 AM 54.0 °F 51.4 °F 91% 29.80 in 7.0 mi WNW 3.5 mph - 0.03 in Rain , Thunderstorm Heavy Thunderstorms and Rain
1:35 AM 53.6 °F 51.1 °F 91% 29.80 in 5.0 mi NW 9.2 mph - 0.09 in Rain , Thunderstorm Heavy Thunderstorms and Rain
1:55 AM 53.1 °F 50.7 °F 92% 29.78 in 4.0 mi NW 10.4 mph 17.3 mph 0.19 in Rain , Thunderstorm Heavy Thunderstorms and Rain
2:15 AM 52.3 °F 49.6 °F 91% 29.78 in 5.0 mi NNW 5.8 mph - 0.05 in Rain , Thunderstorm Heavy Thunderstorms and Rain
2:35 AM 52.3 °F 49.8 °F 91% 29.80 in 5.0 mi WNW 6.9 mph - 0.17 in Rain , Thunderstorm Heavy Thunderstorms and Rain
2:55 AM 51.8 °F 48.9 °F 90% 29.79 in 4.0 mi Calm Calm - 0.27 in Rain , Thunderstorm Heavy Thunderstorms and Rain
3:15 AM 51.3 °F 48.7 °F 91% 29.77 in 5.0 mi Calm Calm - 0.04 in Rain , Thunderstorm Thunderstorms and Rain
3:35 AM 51.3 °F 48.9 °F 92% 29.77 in 5.0 mi NNW 6.9 mph - 0.11 in Rain , Thunderstorm Heavy Thunderstorms and Rain
3:55 AM 51.4 °F 49.1 °F 92% 29.78 in 4.0 mi NW 4.6 mph - 0.18 in Rain , Thunderstorm Heavy Thunderstorms and Rain
4:15 AM 51.3 °F 49.1 °F 92% 29.76 in 7.0 mi Calm Calm - 0.04 in Rain , Thunderstorm Thunderstorms and Rain
4:35 AM 51.8 °F 49.3 °F 91% 29.77 in 7.0 mi Calm Calm - 0.07 in Rain , Thunderstorm Thunderstorms and Rain
4:55 AM 51.4 °F 49.1 °F 92% 29.76 in 5.0 mi WNW 10.4 mph 16.1 mph 0.13 in Rain , Thunderstorm Rain
5:15 AM 51.3 °F 49.1 °F 92% 29.78 in 2.0 mi West 9.2 mph - 0.15 in Rain , Thunderstorm Heavy Thunderstorms and Rain
5:35 AM 50.9 °F 48.4 °F 91% 29.79 in 4.0 mi WNW 12.7 mph 21.9 mph 0.26 in Rain , Thunderstorm Thunderstorms and Rain
5:55 AM 50.4 °F 47.8 °F 91% 29.79 in 5.0 mi WNW 11.5 mph 18.4 mph 0.36 in Rain Rain
6:15 AM 50.2 °F 47.3 °F 90% 29.80 in 10.0 mi NNW 4.6 mph 16.1 mph 0.02 in Rain , Thunderstorm Light Thunderstorms and Rain
6:35 AM 50.0 °F 47.3 °F 90% 29.77 in 10.0 mi Calm Calm - 0.07 in Rain Light Rain
6:55 AM 49.6 °F 47.1 °F 91% 29.77 in 5.0 mi Calm Calm - 0.11 in Rain Light Rain
7:15 AM 49.5 °F 47.1 °F 92% 29.79 in 2.5 mi Calm Calm - 0.08 in Rain , Thunderstorm Thunderstorms and Rain
7:35 AM 49.6 °F 47.3 °F 92% 29.82 in 2.0 mi WNW 8.1 mph - 0.19 in Rain Rain
7:55 AM 50.0 °F 47.3 °F 90% 29.84 in 4.0 mi WNW 4.6 mph 18.4 mph 0.25 in Rain , Thunderstorm Thunderstorms and Rain
8:15 AM 49.5 °F 46.8 °F 90% 29.84 in 4.0 mi NW 6.9 mph - 0.05 in Rain Rain
8:35 AM 49.3 °F 46.6 °F 90% 29.86 in 4.0 mi Calm Calm - 0.12 in Rain Rain
8:55 AM 49.1 °F 46.8 °F 92% 29.82 in 5.0 mi Calm Calm - 0.17 in Rain Rain
9:15 AM 49.3 °F 46.8 °F 91% 29.87 in 7.0 mi West 3.5 mph - 0.03 in Rain , Thunderstorm Thunderstorms and Rain
9:35 AM 49.1 °F 46.4 °F 90% 29.84 in 10.0 mi NNW 5.8 mph - 0.07 in Rain Rain
9:55 AM 48.7 °F 46.2 °F 91% 29.83 in 7.0 mi Calm Calm - 0.10 in Rain Rain
10:15 AM 49.3 °F 46.9 °F 92% 29.84 in 5.0 mi Calm Calm - 0.03 in Rain Rain
10:35 AM 49.1 °F 46.6 °F 91% 29.84 in 4.0 mi WNW 12.7 mph - 0.09 in Rain Rain
10:55 AM 48.6 °F 46.0 °F 91% 29.84 in 10.0 mi WNW 6.9 mph - 0.10 in   Overcast
11:15 AM 48.9 °F 46.0 °F 90% 29.84 in 10.0 mi Calm Calm - N/A   Overcast
11:35 AM 48.6 °F 45.7 °F 90% 29.85 in 10.0 mi Calm Calm - 0.01 in Rain Rain
12:15 PM 49.1 °F 46.2 °F 90% 29.83 in 10.0 mi Calm Calm - N/A   Light Drizzle
12:35 PM 49.1 °F 46.4 °F 90% 29.78 in 7.0 mi Calm Calm - 0.01 in Rain Light Rain
12:55 PM 50.0 °F 47.3 °F 90% 29.82 in 10.0 mi Calm Calm - 0.02 in Rain Light Rain
1:15 PM 50.4 °F 47.8 °F 91% 29.81 in 10.0 mi WNW 4.6 mph - N/A Rain Light Rain
1:35 PM 49.5 °F 46.8 °F 90% 29.73 in 10.0 mi Calm Calm - N/A Rain Light Rain
1:55 PM 50.4 °F 47.5 °F 90% 29.82 in 10.0 mi West 3.5 mph - 0.01 in   Overcast
2:15 PM 50.7 °F 47.3 °F 88% 29.73 in 10.0 mi North 4.6 mph - N/A   Overcast
2:35 PM 50.9 °F 47.3 °F 87% 29.77 in 10.0 mi WNW 11.5 mph 19.6 mph N/A   Overcast
2:55 PM 51.1 °F 46.8 °F 85% 29.78 in 10.0 mi West 9.2 mph - N/A   Overcast
3:15 PM 50.5 °F 45.5 °F 83% 29.80 in 10.0 mi WNW 10.4 mph 16.1 mph N/A   Overcast
3:35 PM 53.1 °F 47.5 °F 81% 29.78 in 10.0 mi WNW 6.9 mph - N/A   Overcast
3:55 PM 52.2 °F 45.9 °F 79% 29.79 in 10.0 mi Calm Calm - N/A   Overcast
4:15 PM 53.4 °F 45.1 °F 74% 29.77 in 10.0 mi NW 9.2 mph - N/A   Mostly Cloudy
4:35 PM 53.8 °F 44.8 °F 72% 29.79 in 10.0 mi West 5.8 mph - N/A   Mostly Cloudy
4:55 PM 54.7 °F 44.4 °F 68% 29.79 in 10.0 mi NW 11.5 mph - N/A   Scattered Clouds
5:15 PM 55.2 °F 44.1 °F 66% 29.79 in 10.0 mi Calm Calm - N/A   Scattered Clouds
5:35 PM 55.2 °F 44.4 °F 67% 29.79 in 10.0 mi Calm Calm - N/A   Clear
5:55 PM 55.2 °F 43.9 °F 66% 29.81 in 10.0 mi Calm Calm - N/A   Clear
6:15 PM 54.7 °F 43.0 °F 65% 29.80 in 10.0 mi Calm Calm - N/A   Clear
6:35 PM 54.5 °F 43.0 °F 65% 29.81 in 10.0 mi Calm Calm - N/A   Clear
6:55 PM 54.0 °F 43.3 °F 67% 29.82 in 10.0 mi Calm Calm - N/A   Clear
7:15 PM 52.9 °F 44.2 °F 72% 29.82 in 10.0 mi Calm Calm - N/A   Clear
7:35 PM 50.0 °F 45.7 °F 85% 29.82 in 10.0 mi Calm Calm - N/A   Clear
7:55 PM 48.2 °F 45.1 °F 89% 29.81 in 10.0 mi Calm Calm - N/A   Clear
8:15 PM 46.9 °F 44.2 °F 90% 29.81 in 10.0 mi Calm Calm - N/A   Clear
8:35 PM 46.4 °F 44.1 °F 92% 29.82 in 7.0 mi Calm Calm - N/A   Clear
8:55 PM 45.9 °F 43.7 °F 92% 29.83 in 7.0 mi Calm Calm - N/A   Clear
9:15 PM 45.5 °F 43.3 °F 92% 29.83 in 5.0 mi Calm Calm - N/A   Clear
9:35 PM 45.1 °F 43.0 °F 92% 29.83 in 5.0 mi Calm Calm - N/A   Clear
9:55 PM 44.8 °F 42.8 °F 93% 29.84 in 5.0 mi Calm Calm - N/A   Clear
10:15 PM 44.8 °F 42.6 °F 92% 29.84 in 5.0 mi Calm Calm - N/A   Clear
10:35 PM 44.2 °F 42.3 °F 93% 29.86 in 4.0 mi Calm Calm - N/A   Clear
10:55 PM 43.9 °F 41.9 °F 93% 29.86 in 4.0 mi Calm Calm - N/A   Clear
11:15 PM 43.9 °F 41.9 °F 93% 29.87 in 5.0 mi Calm Calm - N/A   Clear
11:35 PM 43.7 °F 41.7 °F 93% 29.87 in 4.0 mi Calm Calm - N/A   Clear
11:55 PM 43.3 °F 41.4 °F 93% 29.88 in 5.0 mi Calm Calm - N/A   Clear